Hourly Data Report for September 25, 2017

All times are specified in Local Standard Time (LST). Add 1 hour to adjust for Daylight Saving Time where and when it is observed.

OTTAWA INTL A
ONTARIO

45°19'00.000" N
75°40'00.000" W
114.90 m
6106001
71628
YOW

Download Data

Hourly Data (September 2017)
Hourly Data Report for September 25, 2017
Temp Definition
°C
Dew Point Temp Definition
°C
Rel Hum Definition
%
Wind Dir Definition
10's deg

Wind Spd Definition
km/h
Visibility Definition
km
Stn Press Definition
kPa
Hmdx Definition


Wind Chill Definition


Weather Definition


TIME
00:00 Legend Double Dagger 19.7 18.6 93 18 4 24.1 100.43     LegendNANA
01:00 Legend Double Dagger 20.1 19.3 95 19 4 24.1 100.45 27   Clear
02:00 Legend Double Dagger 19.2 18.3 94 19 4 24.1 100.44     LegendNANA
03:00 Legend Double Dagger 18.7 18.3 98 22 5 16.1 100.45     LegendNANA
04:00 Legend Double Dagger 19.0 18.7 98 26 4 16.1 100.46     Clear
05:00 Legend Double Dagger 18.1 17.8 98 24 5 12.9 100.47     LegendNANA
06:00 Legend Double Dagger 17.0 16.7 98 23 5 16.1 100.50     LegendNANA
07:00 Legend Double Dagger 19.2 18.9 98 23 3 24.1 100.52     Clear
08:00 Legend Double Dagger 21.4 20.0 91 25 4 24.1 100.57 29   LegendNANA
09:00 Legend Double Dagger 25.6 21.3 77 31 4 24.1 100.57 34   LegendNANA
10:00 Legend Double Dagger 27.9 20.4 63 24 4 24.1 100.55 36   Clear
11:00 Legend Double Dagger 30.1 19.2 51 21 7 24.1 100.50 37   LegendNANA
12:00 Legend Double Dagger 31.4 18.1 45 18 3 24.1 100.47 37   LegendNANA
13:00 Legend Double Dagger 32.3 19.0 45 4 4 24.1 100.41 39   Mostly Cloudy
14:00 Legend Double Dagger 33.0 17.1 38 23 9 24.1 100.36 38   LegendNANA
15:00 Legend Double Dagger 32.8 16.2 36 20 10 24.1 100.32 38   LegendNANA
16:00 Legend Double Dagger 31.8 19.7 48 16 9 24.1 100.29 39   Mostly Cloudy
17:00 Legend Double Dagger 29.7 18.9 52 16 8 24.1 100.27 36   LegendNANA
18:00 Legend Double Dagger 26.9 18.1 58 18 8 24.1 100.27 33   LegendNANA
19:00 Legend Double Dagger 25.9 17.7 60 19 9 24.1 100.27 32   Mainly Clear
20:00 Legend Double Dagger 24.6 17.6 65 19 8 24.1 100.27 30   LegendNANA
21:00 Legend Double Dagger 23.5 18.8 74 18 10 24.1 100.26 30   LegendNANA
22:00 Legend Double Dagger 23.1 19.0 77 20 8 24.1 100.25 30   Clear
23:00 Legend Double Dagger 22.5 19.1 81 22 7 24.1 100.24 29   LegendNANA

Notes on Data Quality.

Legend

  • E = Estimated
  • M = Missing
  • NA = Not Available
  • ‡ = Partner data that is not subject to review by the National Climate Archives
Date modified: